FDB3YX OMDB-OPKC

Flight info

Callsign FDB3YX
Flight time 1h 42m
Altitude 35000
Route ANVIX DCT NADSO B524 ALPOR G216 LAKIV
Aircraft B738/M-SDE2E3FGHIRWXY/LB1

Departure

Time 2026-04-23 14:56
Airport Dubai International Airport (OMDB)

Arrival

Time 2026-04-23 16:38
Airport Jinnah International Airport (OPKC)
Time Latitude Longitude Altitude Speed Heading
2026-04-23 14:32 25.26371 55.35964 20 ft 0 kts 31°
2026-04-23 14:43 25.26370 55.35963 20 ft 1 kts 31°
2026-04-23 14:43 25.26349 55.35949 22 ft 4 kts 31°
2026-04-23 14:43 25.26326 55.35934 22 ft 4 kts 31°
2026-04-23 14:44 25.26306 55.35918 23 ft 4 kts 63°
2026-04-23 14:44 25.26305 55.35893 25 ft 3 kts 120°
2026-04-23 14:44 25.26315 55.35874 23 ft 3 kts 122°
2026-04-23 14:44 25.26317 55.35871 23 ft 1 kts 122°
2026-04-23 14:48 25.26312 55.35880 22 ft 3 kts 122°
2026-04-23 14:48 25.26289 55.35914 22 ft 8 kts 141°
2026-04-23 14:48 25.26228 55.35905 21 ft 11 kts 185°
2026-04-23 14:48 25.26164 55.35969 21 ft 15 kts 121°
2026-04-23 14:49 25.26106 55.36074 21 ft 17 kts 121°
2026-04-23 14:49 25.26043 55.36185 21 ft 17 kts 122°
2026-04-23 14:49 25.25983 55.36292 23 ft 16 kts 122°
2026-04-23 14:49 25.25924 55.36396 23 ft 16 kts 121°
2026-04-23 14:50 25.25863 55.36506 22 ft 18 kts 122°
2026-04-23 14:50 25.25793 55.36630 23 ft 20 kts 121°
2026-04-23 14:50 25.25717 55.36766 22 ft 21 kts 122°
2026-04-23 14:50 25.25635 55.36910 23 ft 23 kts 122°
2026-04-23 14:51 25.25546 55.37065 22 ft 24 kts 120°
2026-04-23 14:51 25.25460 55.37221 22 ft 24 kts 122°
2026-04-23 14:51 25.25372 55.37377 22 ft 23 kts 122°
2026-04-23 14:51 25.25289 55.37526 23 ft 22 kts 122°
2026-04-23 14:52 25.25207 55.37670 24 ft 22 kts 122°
2026-04-23 14:52 25.25128 55.37810 23 ft 21 kts 122°
2026-04-23 14:52 25.25052 55.37947 21 ft 21 kts 122°
2026-04-23 14:52 25.24988 55.38041 21 ft 10 kts 157°
2026-04-23 14:53 25.24950 55.38030 22 ft 3 kts 209°
2026-04-23 14:53 25.24945 55.38026 22 ft 1 kts 210°
2026-04-23 14:53 25.24941 55.38024 22 ft 1 kts 210°
2026-04-23 14:53 25.24938 55.38022 22 ft 0 kts 210°
2026-04-23 14:54 25.24935 55.38020 24 ft 0 kts 210°
2026-04-23 14:54 25.24932 55.38018 24 ft 1 kts 210°
2026-04-23 14:54 25.24921 55.38012 23 ft 3 kts 210°
2026-04-23 14:54 25.24883 55.37986 24 ft 9 kts 215°
2026-04-23 14:55 25.24867 55.37917 29 ft 12 kts 298°
2026-04-23 14:55 25.24988 55.37701 28 ft 72 kts 302°
2026-04-23 14:55 25.25391 55.36973 25 ft 148 kts 301°
2026-04-23 14:55 25.25997 55.35869 466 ft 176 kts 305°
2026-04-23 14:56 25.26610 55.34713 1511 ft 173 kts 303°
2026-04-23 14:56 25.27250 55.33555 2411 ft 181 kts 306°
2026-04-23 14:56 25.27948 55.32343 3206 ft 194 kts 304°
2026-04-23 14:56 25.28663 55.31030 4013 ft 200 kts 300°
2026-04-23 14:57 25.29303 55.29696 4970 ft 195 kts 290°
2026-04-23 14:57 25.29548 55.28204 5540 ft 207 kts 261°
2026-04-23 14:57 25.28945 55.26696 5948 ft 224 kts 234°
2026-04-23 14:57 25.28022 55.25262 6420 ft 239 kts 238°
2026-04-23 14:58 25.27228 55.23664 6488 ft 239 kts 243°
2026-04-23 14:58 25.26474 55.21968 6646 ft 257 kts 243°
2026-04-23 14:58 25.25667 55.20149 6788 ft 268 kts 243°
2026-04-23 14:58 25.25089 55.18913 6859 ft 268 kts 237°
2026-04-23 14:59 25.23788 55.17492 6949 ft 270 kts 210°
2026-04-23 14:59 25.22009 55.16810 7095 ft 275 kts 189°
2026-04-23 14:59 25.20083 55.16906 7705 ft 283 kts 165°
2026-04-23 14:59 25.18369 55.17977 8507 ft 288 kts 140°
2026-04-23 15:00 25.17144 55.19748 9276 ft 295 kts 122°
2026-04-23 15:00 25.16187 55.21766 10000 ft 298 kts 120°
2026-04-23 15:00 25.15236 55.23820 10664 ft 302 kts 121°
2026-04-23 15:00 25.14262 55.25892 11347 ft 305 kts 121°
2026-04-23 15:01 25.13271 55.27978 12031 ft 308 kts 121°
2026-04-23 15:01 25.12264 55.30081 12736 ft 311 kts 122°
2026-04-23 15:01 25.11243 55.32202 13406 ft 314 kts 122°
2026-04-23 15:01 25.10243 55.34369 14037 ft 319 kts 119°
2026-04-23 15:02 25.09319 55.36616 14625 ft 324 kts 117°
2026-04-23 15:02 25.08395 55.38901 14978 ft 329 kts 117°
2026-04-23 15:02 25.07458 55.41204 14993 ft 328 kts 117°
2026-04-23 15:02 25.06527 55.43552 15028 ft 343 kts 116°
2026-04-23 15:03 25.05562 55.46066 15039 ft 367 kts 116°
2026-04-23 15:03 25.04541 55.48741 15032 ft 386 kts 116°
2026-04-23 15:03 25.03492 55.51483 15015 ft 389 kts 115°
2026-04-23 15:03 25.02442 55.54215 15007 ft 387 kts 116°
2026-04-23 15:04 25.01307 55.56851 15009 ft 383 kts 122°
2026-04-23 15:04 24.99959 55.59376 15021 ft 381 kts 124°
2026-04-23 15:04 24.98557 55.61855 15020 ft 380 kts 125°
2026-04-23 15:04 24.97167 55.64340 15017 ft 381 kts 124°
2026-04-23 15:05 24.95798 55.66842 15021 ft 381 kts 123°
2026-04-23 15:05 24.94435 55.69357 15027 ft 382 kts 124°
2026-04-23 15:05 24.92983 55.71797 15025 ft 381 kts 128°
2026-04-23 15:05 24.91406 55.74172 15166 ft 387 kts 129°
2026-04-23 15:06 24.89782 55.76557 15733 ft 390 kts 128°
2026-04-23 15:06 24.88418 55.79175 16181 ft 402 kts 114°
2026-04-23 15:06 24.87686 55.82193 16533 ft 414 kts 99°
2026-04-23 15:06 24.87532 55.85338 17053 ft 419 kts 91°
2026-04-23 15:07 24.87502 55.88572 17584 ft 422 kts 91°
2026-04-23 15:07 24.87482 55.91824 18141 ft 425 kts 91°
2026-04-23 15:07 24.87457 55.95085 18611 ft 428 kts 91°
2026-04-23 15:07 24.87423 55.98379 19042 ft 432 kts 91°
2026-04-23 15:08 24.87380 56.01699 19484 ft 436 kts 91°
2026-04-23 15:08 24.87331 56.05043 19931 ft 439 kts 91°
2026-04-23 15:08 24.87276 56.08420 20362 ft 442 kts 92°
2026-04-23 15:09 24.87158 56.15248 21216 ft 449 kts 92°
2026-04-23 15:09 24.87097 56.18697 21633 ft 452 kts 92°
2026-04-23 15:09 24.87034 56.22170 22032 ft 455 kts 92°
2026-04-23 15:09 24.86971 56.25670 22392 ft 459 kts 92°
2026-04-23 15:10 24.86906 56.29198 22799 ft 462 kts 92°
2026-04-23 15:10 24.86840 56.32740 23228 ft 463 kts 92°
2026-04-23 15:10 24.86773 56.36290 23618 ft 465 kts 92°
2026-04-23 15:10 24.86705 56.39859 23938 ft 467 kts 92°
2026-04-23 15:11 24.86636 56.43445 24257 ft 470 kts 92°
2026-04-23 15:11 24.86566 56.47057 24587 ft 472 kts 92°
2026-04-23 15:11 24.86495 56.50681 24916 ft 474 kts 91°
2026-04-23 15:11 24.86422 56.54319 25225 ft 476 kts 91°
2026-04-23 15:12 24.86349 56.57924 25542 ft 478 kts 91°
2026-04-23 15:12 24.86274 56.61596 25879 ft 480 kts 91°
2026-04-23 15:12 24.86198 56.65273 26201 ft 481 kts 91°
2026-04-23 15:12 24.86120 56.68968 26516 ft 483 kts 91°
2026-04-23 15:13 24.86042 56.72674 26803 ft 485 kts 91°
2026-04-23 15:13 24.85962 56.76403 27088 ft 487 kts 91°
2026-04-23 15:13 24.85881 56.80143 27378 ft 489 kts 91°
2026-04-23 15:13 24.85798 56.83913 27662 ft 491 kts 91°
2026-04-23 15:14 24.85714 56.87675 27932 ft 493 kts 91°
2026-04-23 15:14 24.85629 56.91463 28167 ft 496 kts 91°
2026-04-23 15:14 24.85543 56.95266 28405 ft 498 kts 91°
2026-04-23 15:14 24.85455 56.99086 28666 ft 500 kts 91°
2026-04-23 15:15 24.85366 57.02920 28937 ft 501 kts 91°
2026-04-23 15:15 24.85276 57.06770 29180 ft 503 kts 91°
2026-04-23 15:15 24.85184 57.10622 29432 ft 505 kts 91°
2026-04-23 15:15 24.85093 57.14426 29863 ft 502 kts 91°
2026-04-23 15:16 24.85000 57.18251 30333 ft 497 kts 91°
2026-04-23 15:16 24.84906 57.22051 30684 ft 496 kts 90°
2026-04-23 15:16 24.84812 57.25852 30918 ft 497 kts 90°
2026-04-23 15:16 24.84717 57.29670 31150 ft 498 kts 90°
2026-04-23 15:17 24.84621 57.33476 31448 ft 498 kts 90°
2026-04-23 15:17 24.84524 57.37280 31788 ft 496 kts 90°
2026-04-23 15:17 24.84426 57.41077 32124 ft 494 kts 90°
2026-04-23 15:17 24.84328 57.44855 32455 ft 493 kts 90°
2026-04-23 15:18 24.84228 57.48636 32728 ft 493 kts 90°
2026-04-23 15:18 24.84128 57.52412 32972 ft 494 kts 90°
2026-04-23 15:18 24.84027 57.56194 33253 ft 493 kts 90°
2026-04-23 15:18 24.83925 57.59970 33559 ft 492 kts 90°
2026-04-23 15:19 24.83824 57.63689 33843 ft 492 kts 90°
2026-04-23 15:19 24.83721 57.67430 34125 ft 490 kts 90°
2026-04-23 15:19 24.83617 57.71186 34410 ft 488 kts 90°
2026-04-23 15:19 24.83512 57.74939 34560 ft 490 kts 90°
2026-04-23 15:20 24.83407 57.78655 34679 ft 492 kts 90°
2026-04-23 15:20 24.83254 57.82435 34792 ft 495 kts 94°
2026-04-23 15:20 24.82715 57.86196 34802 ft 499 kts 101°
2026-04-23 15:21 24.81147 57.93659 34811 ft 500 kts 103°
2026-04-23 15:21 24.79526 58.01094 34806 ft 498 kts 102°
2026-04-23 15:22 24.77970 58.08509 34804 ft 496 kts 102°
2026-04-23 15:22 24.76460 58.15867 34806 ft 495 kts 102°
2026-04-23 15:23 24.74951 58.23238 34821 ft 493 kts 102°
2026-04-23 15:23 24.73439 58.30592 34801 ft 491 kts 102°
2026-04-23 15:24 24.71928 58.37908 34804 ft 489 kts 102°
2026-04-23 15:24 24.70419 58.45193 34807 ft 488 kts 102°
2026-04-23 15:25 24.68911 58.52457 34819 ft 487 kts 101°
2026-04-23 15:25 24.67401 58.59710 34809 ft 486 kts 101°
2026-04-23 15:26 24.65889 58.66954 34809 ft 486 kts 101°
2026-04-23 15:26 24.64374 58.74196 34808 ft 486 kts 102°
2026-04-23 15:27 24.62854 58.81443 34806 ft 487 kts 102°
2026-04-23 15:27 24.61340 58.88644 34806 ft 487 kts 102°
2026-04-23 15:28 24.59801 58.95948 34817 ft 488 kts 102°
2026-04-23 15:28 24.58274 59.03175 34814 ft 489 kts 102°
2026-04-23 15:29 24.56722 59.10501 34812 ft 489 kts 102°
2026-04-23 15:29 24.55185 59.17739 34808 ft 490 kts 102°
2026-04-23 15:30 24.53633 59.25033 34805 ft 490 kts 102°
2026-04-23 15:30 24.52083 59.32328 34815 ft 490 kts 102°
2026-04-23 15:31 24.50532 59.39622 34809 ft 490 kts 102°
2026-04-23 15:31 24.48977 59.46910 34803 ft 490 kts 102°
2026-04-23 15:32 24.47418 59.54200 34819 ft 490 kts 102°
2026-04-23 15:32 24.45857 59.61477 34807 ft 490 kts 102°
2026-04-23 15:33 24.44294 59.68752 34803 ft 489 kts 102°
2026-04-23 15:33 24.42727 59.76022 34810 ft 489 kts 102°
2026-04-23 15:34 24.41160 59.83277 34809 ft 488 kts 102°
2026-04-23 15:34 24.39591 59.90525 34815 ft 488 kts 102°
2026-04-23 15:35 24.38021 59.97758 34808 ft 487 kts 102°
2026-04-23 15:35 24.36449 60.04985 34812 ft 487 kts 102°
2026-04-23 15:36 24.34875 60.12199 34812 ft 487 kts 102°
2026-04-23 15:36 24.33290 60.19412 34821 ft 486 kts 103°
2026-04-23 15:37 24.31703 60.26615 34809 ft 486 kts 103°
2026-04-23 15:37 24.30381 60.32604 34805 ft 486 kts 103°
2026-04-23 15:38 24.28523 60.41006 34808 ft 485 kts 103°
2026-04-23 15:38 24.26943 60.48134 34814 ft 484 kts 103°
2026-04-23 15:39 24.25350 60.55304 34812 ft 484 kts 103°
2026-04-23 15:39 24.23754 60.62468 34816 ft 484 kts 103°
2026-04-23 15:40 24.22156 60.69629 34816 ft 484 kts 103°
2026-04-23 15:40 24.20556 60.76781 34815 ft 484 kts 103°
2026-04-23 15:41 24.18951 60.83945 34817 ft 484 kts 103°
2026-04-23 15:41 24.17346 60.91095 34817 ft 484 kts 104°
2026-04-23 15:42 24.15735 60.98257 34814 ft 485 kts 103°
2026-04-23 15:42 24.14119 61.05424 34819 ft 485 kts 103°
2026-04-23 15:43 24.12499 61.12595 34823 ft 485 kts 103°
2026-04-23 15:43 24.11148 61.18559 34822 ft 486 kts 103°
2026-04-23 15:44 24.09520 61.25737 34822 ft 486 kts 103°
2026-04-23 15:44 24.08226 61.33038 34818 ft 485 kts 92°
2026-04-23 15:45 24.08684 61.40258 34836 ft 480 kts 78°
2026-04-23 15:45 24.09837 61.47456 34820 ft 480 kts 78°
2026-04-23 15:46 24.10951 61.54638 34824 ft 480 kts 78°
2026-04-23 15:46 24.12023 61.61896 34827 ft 479 kts 78°
2026-04-23 15:47 24.13065 61.69053 34827 ft 479 kts 78°
2026-04-23 15:47 24.14114 61.76253 34824 ft 479 kts 78°
2026-04-23 15:48 24.15146 61.83453 34821 ft 479 kts 79°
2026-04-23 15:48 24.16123 61.90651 34825 ft 478 kts 79°
2026-04-23 15:49 24.17088 61.97853 34829 ft 478 kts 79°
2026-04-23 15:49 24.18055 62.05044 34821 ft 477 kts 79°
2026-04-23 15:50 24.19020 62.12221 34823 ft 476 kts 79°
2026-04-23 15:50 24.19978 62.19364 34824 ft 475 kts 79°
2026-04-23 15:51 24.20934 62.26514 34836 ft 474 kts 78°
2026-04-23 15:51 24.21883 62.33642 34818 ft 472 kts 78°
2026-04-23 15:52 24.22825 62.40742 34817 ft 470 kts 78°
2026-04-23 15:52 24.23760 62.47815 34819 ft 468 kts 78°
2026-04-23 15:53 24.24688 62.54863 34826 ft 467 kts 78°
2026-04-23 15:53 24.25611 62.61892 34823 ft 466 kts 78°
2026-04-23 15:54 24.26529 62.68911 34824 ft 465 kts 78°
2026-04-23 15:54 24.27437 62.75880 34825 ft 465 kts 78°
2026-04-23 15:55 24.28349 62.82903 34829 ft 466 kts 78°
2026-04-23 15:55 24.29259 62.89937 34826 ft 467 kts 78°
2026-04-23 15:56 24.30169 62.97000 34831 ft 469 kts 78°
2026-04-23 15:56 24.31079 63.04083 34823 ft 470 kts 78°
2026-04-23 15:57 24.31987 63.11186 34823 ft 471 kts 78°
2026-04-23 15:57 24.32893 63.18301 34824 ft 471 kts 79°
2026-04-23 15:58 24.33796 63.25419 34827 ft 471 kts 79°
2026-04-23 15:58 24.34695 63.32533 34827 ft 471 kts 79°
2026-04-23 15:59 24.35589 63.39633 34830 ft 470 kts 79°
2026-04-23 15:59 24.36480 63.46729 34841 ft 469 kts 79°
2026-04-23 16:00 24.37364 63.53810 34826 ft 468 kts 79°
2026-04-23 16:00 24.38245 63.60885 34829 ft 467 kts 79°
2026-04-23 16:01 24.39118 63.67925 34829 ft 465 kts 79°
2026-04-23 16:01 24.39987 63.74953 34834 ft 464 kts 80°
2026-04-23 16:02 24.40848 63.81945 34829 ft 464 kts 80°
2026-04-23 16:02 24.41707 63.88958 34831 ft 463 kts 80°
2026-04-23 16:03 24.42562 63.95960 34830 ft 463 kts 80°
2026-04-23 16:03 24.43414 64.02961 34829 ft 463 kts 80°
2026-04-23 16:04 24.44261 64.09956 34835 ft 464 kts 80°
2026-04-23 16:04 24.45106 64.16956 34833 ft 464 kts 81°
2026-04-23 16:05 24.45809 64.22796 34833 ft 465 kts 81°
2026-04-23 16:05 24.46790 64.30984 34841 ft 465 kts 81°
2026-04-23 16:06 24.47630 64.38030 34842 ft 465 kts 81°
2026-04-23 16:06 24.48467 64.45074 34833 ft 465 kts 81°
2026-04-23 16:07 24.49298 64.52111 34832 ft 464 kts 81°
2026-04-23 16:07 24.50125 64.59133 34843 ft 463 kts 81°
2026-04-23 16:08 24.50947 64.66133 34842 ft 462 kts 81°
2026-04-23 16:08 24.51763 64.73126 34842 ft 461 kts 81°
2026-04-23 16:09 24.52577 64.80107 34847 ft 461 kts 81°
2026-04-23 16:09 24.53315 64.87092 34841 ft 460 kts 83°
2026-04-23 16:10 24.53845 64.94102 34844 ft 461 kts 83°
2026-04-23 16:10 24.54350 65.01115 34840 ft 461 kts 83°
2026-04-23 16:11 24.54877 65.08112 34845 ft 461 kts 83°
2026-04-23 16:11 24.55420 65.15144 34702 ft 465 kts 83°
2026-04-23 16:11 24.55696 65.18711 34159 ft 469 kts 83°
2026-04-23 16:12 24.55970 65.22272 33530 ft 468 kts 83°
2026-04-23 16:12 24.56243 65.25835 32992 ft 466 kts 83°
2026-04-23 16:12 24.56512 65.29358 32535 ft 461 kts 83°
2026-04-23 16:12 24.56777 65.32850 32085 ft 457 kts 83°
2026-04-23 16:13 24.57040 65.36326 31642 ft 453 kts 83°
2026-04-23 16:13 24.57554 65.43142 30769 ft 446 kts 84°
2026-04-23 16:13 24.57811 65.46547 30112 ft 449 kts 84°
2026-04-23 16:14 24.58068 65.49959 29577 ft 447 kts 83°
2026-04-23 16:14 24.58321 65.53351 29073 ft 443 kts 83°
2026-04-23 16:14 24.58570 65.56706 28610 ft 438 kts 84°
2026-04-23 16:14 24.58816 65.60027 28175 ft 433 kts 84°
2026-04-23 16:15 24.59059 65.63309 27730 ft 429 kts 84°
2026-04-23 16:15 24.59298 65.66559 27293 ft 425 kts 83°
2026-04-23 16:15 24.59534 65.69778 26864 ft 421 kts 84°
2026-04-23 16:15 24.59768 65.72969 26443 ft 418 kts 84°
2026-04-23 16:16 24.60001 65.76142 26015 ft 414 kts 84°
2026-04-23 16:16 24.60230 65.79284 25602 ft 411 kts 84°
2026-04-23 16:16 24.60456 65.82384 25189 ft 408 kts 83°
2026-04-23 16:16 24.60680 65.85481 24775 ft 406 kts 84°
2026-04-23 16:17 24.60904 65.88568 24367 ft 403 kts 83°
2026-04-23 16:17 24.61126 65.91639 23938 ft 402 kts 83°
2026-04-23 16:17 24.61347 65.94695 23516 ft 400 kts 84°
2026-04-23 16:17 24.61566 65.97741 23035 ft 399 kts 84°
2026-04-23 16:18 24.61779 66.00728 22595 ft 397 kts 84°
2026-04-23 16:18 24.61993 66.03736 22169 ft 394 kts 84°
2026-04-23 16:18 24.62205 66.06718 21765 ft 391 kts 83°
2026-04-23 16:18 24.62415 66.09690 21352 ft 388 kts 84°
2026-04-23 16:19 24.62623 66.12636 20954 ft 385 kts 83°
2026-04-23 16:19 24.62830 66.15560 20552 ft 383 kts 83°
2026-04-23 16:19 24.63035 66.18474 20153 ft 381 kts 84°
2026-04-23 16:19 24.63239 66.21368 19758 ft 379 kts 83°
2026-04-23 16:20 24.63439 66.24245 19361 ft 377 kts 83°
2026-04-23 16:20 24.63639 66.27115 18957 ft 376 kts 84°
2026-04-23 16:20 24.63839 66.29978 18554 ft 375 kts 84°
2026-04-23 16:20 24.64037 66.32833 18145 ft 374 kts 84°
2026-04-23 16:21 24.64233 66.35676 17707 ft 372 kts 84°
2026-04-23 16:21 24.64428 66.38506 17289 ft 370 kts 84°
2026-04-23 16:21 24.64621 66.41314 16887 ft 367 kts 84°
2026-04-23 16:21 24.64813 66.44105 16490 ft 365 kts 84°
2026-04-23 16:22 24.65002 66.46872 16109 ft 362 kts 84°
2026-04-23 16:22 24.65190 66.49621 15722 ft 359 kts 83°
2026-04-23 16:22 24.65376 66.52353 15350 ft 357 kts 84°
2026-04-23 16:22 24.65559 66.55058 14966 ft 354 kts 84°
2026-04-23 16:23 24.65741 66.57745 14631 ft 351 kts 84°
2026-04-23 16:23 24.65921 66.60397 14402 ft 345 kts 84°
2026-04-23 16:23 24.66097 66.63007 14169 ft 341 kts 84°
2026-04-23 16:23 24.66272 66.65604 13942 ft 339 kts 84°
2026-04-23 16:24 24.66443 66.68151 13717 ft 337 kts 84°
2026-04-23 16:24 24.66616 66.70720 13464 ft 337 kts 84°
2026-04-23 16:24 24.66789 66.73292 13227 ft 339 kts 83°
2026-04-23 16:24 24.66962 66.75884 12976 ft 340 kts 84°
2026-04-23 16:25 24.67135 66.78473 12724 ft 338 kts 84°
2026-04-23 16:25 24.67305 66.81034 12379 ft 340 kts 84°
2026-04-23 16:25 24.67476 66.83610 12064 ft 336 kts 84°
2026-04-23 16:25 24.67643 66.86157 11838 ft 329 kts 84°
2026-04-23 16:26 24.67803 66.88614 11762 ft 318 kts 83°
2026-04-23 16:26 24.67960 66.91001 11683 ft 307 kts 84°
2026-04-23 16:26 24.68111 66.93309 11602 ft 298 kts 83°
2026-04-23 16:26 24.68258 66.95549 11453 ft 291 kts 84°
2026-04-23 16:27 24.68404 66.97756 11196 ft 289 kts 84°
2026-04-23 16:27 24.68548 66.99968 10781 ft 293 kts 85°
2026-04-23 16:27 24.68697 67.02243 10374 ft 300 kts 84°
2026-04-23 16:27 24.68908 67.04538 10154 ft 310 kts 75°
2026-04-23 16:28 24.69807 67.06700 10126 ft 308 kts 58°
2026-04-23 16:28 24.70916 67.08742 9519 ft 314 kts 57°
2026-04-23 16:28 24.72045 67.10784 8891 ft 316 kts 58°
2026-04-23 16:28 24.72805 67.12159 8473 ft 318 kts 58°
2026-04-23 16:29 24.73952 67.14245 7851 ft 320 kts 58°
2026-04-23 16:29 24.75103 67.16353 7242 ft 322 kts 58°
2026-04-23 16:29 24.76642 67.19187 6441 ft 323 kts 59°
2026-04-23 16:29 24.77781 67.21290 5838 ft 324 kts 59°
2026-04-23 16:30 24.78934 67.23424 5227 ft 325 kts 59°
2026-04-23 16:30 24.80077 67.25544 4619 ft 324 kts 59°
2026-04-23 16:30 24.81229 67.27681 3996 ft 324 kts 59°
2026-04-23 16:30 24.82374 67.29806 3545 ft 319 kts 59°
2026-04-23 16:31 24.83484 67.31867 3313 ft 307 kts 58°
2026-04-23 16:31 24.84205 67.33206 3244 ft 296 kts 58°
2026-04-23 16:31 24.85230 67.35113 3145 ft 282 kts 58°
2026-04-23 16:31 24.86208 67.36929 3033 ft 269 kts 58°
2026-04-23 16:32 24.87313 67.38461 2988 ft 250 kts 34°
2026-04-23 16:32 24.88818 67.39191 3003 ft 232 kts
2026-04-23 16:32 24.90429 67.39275 2996 ft 232 kts 348°
2026-04-23 16:32 24.91973 67.38870 3016 ft 226 kts 342°
2026-04-23 16:33 24.93453 67.38419 3012 ft 215 kts 341°
2026-04-23 16:33 24.94681 67.37634 2990 ft 202 kts 304°
2026-04-23 16:33 24.95069 67.36200 3009 ft 200 kts 267°
2026-04-23 16:33 24.94927 67.34678 2995 ft 198 kts 262°
2026-04-23 16:34 24.94738 67.33246 2834 ft 180 kts 261°
2026-04-23 16:34 24.94505 67.31942 2611 ft 168 kts 258°
2026-04-23 16:34 24.94229 67.30749 2426 ft 152 kts 257°
2026-04-23 16:34 24.93957 67.29646 2240 ft 147 kts 256°
2026-04-23 16:35 24.93688 67.28579 2053 ft 143 kts 256°
2026-04-23 16:35 24.93421 67.27527 1874 ft 144 kts 255°
2026-04-23 16:35 24.93151 67.26463 1686 ft 142 kts 255°
2026-04-23 16:35 24.92892 67.25441 1522 ft 140 kts 256°
2026-04-23 16:36 24.92633 67.24419 1329 ft 140 kts 256°
2026-04-23 16:36 24.92373 67.23393 1166 ft 138 kts 256°
2026-04-23 16:36 24.92119 67.22391 982 ft 134 kts 255°
2026-04-23 16:36 24.91868 67.21397 843 ft 137 kts 255°
2026-04-23 16:37 24.91615 67.20390 666 ft 136 kts 255°
2026-04-23 16:37 24.91341 67.19381 471 ft 137 kts 254°
2026-04-23 16:37 24.91098 67.18381 294 ft 135 kts 256°
2026-04-23 16:37 24.90852 67.17381 142 ft 136 kts 253°
2026-04-23 16:38 24.90615 67.16466 102 ft 99 kts 255°
2026-04-23 16:38 24.90473 67.15905 104 ft 64 kts 255°
2026-04-23 16:38 24.90404 67.15759 103 ft 13 kts 181°
2026-04-23 16:38 24.90320 67.15777 100 ft 12 kts 166°
2026-04-23 16:39 24.90258 67.15827 101 ft 12 kts 94°
2026-04-23 16:39 24.90278 67.15915 101 ft 12 kts 74°
2026-04-23 16:39 24.90300 67.16001 100 ft 11 kts 74°
2026-04-23 16:39 24.90321 67.16083 101 ft 11 kts 74°
2026-04-23 16:40 24.90342 67.16169 100 ft 12 kts 74°
2026-04-23 16:40 24.90367 67.16268 101 ft 14 kts 74°
2026-04-23 16:40 24.90395 67.16378 101 ft 15 kts 74°
2026-04-23 16:40 24.90425 67.16494 101 ft 16 kts 73°
2026-04-23 16:41 24.90453 67.16605 101 ft 13 kts 75°
2026-04-23 16:41 24.90440 67.16688 100 ft 10 kts 141°
2026-04-23 16:41 24.90375 67.16720 100 ft 10 kts 145°
2026-04-23 16:41 24.90342 67.16768 100 ft 8 kts 124°
2026-04-23 16:42 24.90313 67.16814 100 ft 6 kts 124°
2026-04-23 16:42 24.90297 67.16839 100 ft 1 kts 125°
2026-04-23 16:42 24.90296 67.16840 100 ft 0 kts 125°